SCP
0 0 0 0 0 0 0 0 0 0 0 0 0 0 0 0 0 0 0 0 0 0 0 0 0 0 0 0 0 0 0 0 0 0 0 0 0 0 0 0 0 0 0
0 0 0 0 0 0 0 0 0 0 0 0 0 0 0 0 0 0 0 0 0 0 0 0 0 0 0 0 0 0 0 0 0 0 0 0 0 0 0 0 0 0 0
0 0 0 0 0 0 0 0 0 0 0 0 0 0 0 0 0 0 0 0 0 0 0 0 0 0 0 0 0 0 0 0 0 0 0 0 0 0 0 0 0 0 0
0 0 0 0 0 0 0 0 0 0 0 0 0 0 0 0 0 0 0 0 0 0 0 0 0 0 0 0 0 0 0 0 0 0 0 0 0 0 0 0 0 0 0
0 0 0 0 0 0 0 0 0 0 0 0 0 0 0 0 0 0 0 0 0 0 0 0 0 0 0 0 0 0 0 0 0 0 0 0 0 0 0 0 0 0 0
0 0 0 0 0 0 0 0 0 0 0 0 0 0 0 0 0 0 0 0 0 0 0 0 0 0 0 0 0 0 0 0 0 0 0 0 0 0 0 0 0 0 0
0 0 0 0 0 0 0 0 0 0 0 0 0 0 0 0 0 0 0 0 0 0 0 0 0 0 0 0 0 0 0 0 0 0 0 0 0 0 0 0 0 0 0
0 0 0 0 0 0 0 0 0 0 0 0 0 0 0 0 0 0 0 0 0 0 0 0 0 0 0 0 0 0 0 0 0 0 0 0 0 0 0 0 0 0 0
0 0 0 0 0 0 0 0 0 0 0 0 0 0 0 0 0 0 0 0 0 0 0 0 0 0 0 0 0 0 0 0 0 0 0 0 0 0 0 0 0 0 0
0 0 0 0 0 0 0 0 0 0 0 0 0 0 0 0 0 0 0 0 0 0 0 0 0 0 0 0 0 0 0 0 0 0 0 0 0 0 0 0 0 0 0
0 0 0 0 0 0 0 0 0 0 0 0 0 0 0 0 0 0 0 0 0 0 0 0 0 0 0 0 0 0 0 0 0 0 0 0 0 0 0 0 0 0 0
0 0 0 0 0 0 0 0 0 0 0 0 0 0 0 0 0 0 0 0 0 0 0 0 0 0 0 0 0 0 0 0 0 0 0 0 0 0 0 0 0 0 0
0 0 0 0 0 0 0 0 0 0 0 0 0 0 0 0 0 0 0 0 0 0 0 0 0 0 0 0 0 0 0 0 0 0 0 0 0 0 0 0 0 0 0
0 0 0 0 0 0 0 0 0 0 0 0 0 0 0 0 0 0 0 0 0 0 0 0 0 0 0 0 0 0 0 0 0 0 0 0 0 0 0 0 0 0 0
0 0 0 0 0 0 0 0 0 0 0 0 0 0 0 0 0 0 0 0 0 0 0 0 0 0 0 0 0 0 0 0 0 0 0 0 0 0 0 0 0 0 0
0 0 0 0 0 0 0 0 0 0 0 0 0 0 0 0 0 0 0 0 0 0 0 0 0 0 0 0 0 0 0 0 0 0 0 0 0 0 0 0 0 0 0
0 0 0 0 0 0 0 0 0 0 0 0 0 0 0 0 0 0 0 0 0 0 0 0 0 0 0 0 0 0 0 0 0 0 0 0 0 0 0 0 0 0 0
0 0 0 0 0 0 0 0 0 0 0 0 0 0 0 0 0 0 0 0 0 0 0 0 0 0 0 0 0 0 0 0 0 0 0 0 0 0 0 0 0 0 0
0 0 0 0 0 0 0 0 0 0 0 0 0 0 0 0 0 0 0 0 0 0 0 0 0 0 0 0 0 0 0 0 0 0 0 0 0 0 0 0 0 0 0
0 0 0 0 0 0 0 0 0 0 0 0 0 0 0 0 0 0 0 0 0 0 0 0 0 0 0 0 0 0 0 0 0 0 0 0 0 0 0 0 0 0 0
0 0 0 0 0 0 0 0 0 0 0 0 0 0 0 0 0 0 0 0 0 0 0 0 0 0 0 0 0 0 0 0 0 0 0 0 0 0 0 0 0 0 0
0 0 0 0 0 0 0 0 0 0 0 0 0 0 0 0 0 0 0 0 0 0 0 0 0 0 0 0 0 0 0 0 0 0 0 0 0 0 0 0 0 0 0
0 0 0 0 0 0 0 0 0 0 0 0 0 0 0 0 0 0 0 0 0 0 0 0 0 0 0 0 0 0 0 0 0 0 0 0 0 0 0 0 0 0 0
0 0 0 0 0 0 0 0 0 0 0 0 0 0 0 0 0 0 0 0 0 0 0 0 0 0 0 0 0 0 0 0 0 0 0 0 0 0 0 0 0 0 0
0 0 0 0 0 1 0 0 0 0 0 0 0 0 0 0 0 0 0 0 0 0 0 0 0 0 0 0 0 0 0 0 0 0 0 0 0 0 0 0 0 0 0
1 1 0 0 0 1 1 1 0 0 0 0 0 0 0 0 0 0 0 0 0 0 0 0 0 0 0 0 0 0 0 0 0 0 0 0 0 0 0 0 0 0 0
Wind_Speed
3 5 10 10 10 9 11 13 13 13 13 12 12 12 12 12 12 11 11 11 10 10 9 9 9 9 8 8 7 7 7 7 7 6 6 6 6 6 7 7 6 5 9
7 6 11 11 11 11 13 15 14 13 13 12 12 11 11 11 11 10 10 10 10 9 8 8 8 7 7 7 6 6 6 6 6 6 5 5 5 6 7 7 6 4 7
8 7 10 12 12 12 13 13 13 12 12 12 11 11 11 10 10 10 10 9 9 9 8 8 7 7 7 7 7 6 6 6 5 5 5 3 3 5 6 6 6 7 7
9 6 9 12 12 12 12 12 13 12 12 11 11 10 10 9 9 9 9 8 8 8 8 7 6 6 6 6 6 6 6 5 5 5 3 3 3 5 6 6 7 7 7
8 6 8 13 13 12 12 12 12 12 11 11 10 10 9 8 8 8 7 7 7 7 7 6 6 6 6 5 5 6 6 6 6 5 3 3 3 5 7 7 7 7 7
8 6 8 13 13 12 12 11 11 11 10 10 9 9 8 8 8 8 7 7 6 6 7 6 6 6 6 5 5 5 5 6 5 3 3 3 3 6 8 8 8 8 7
8 5 7 13 13 12 12 11 11 10 10 9 9 8 8 7 7 7 7 7 6 6 6 6 6 6 6 6 6 6 6 6 4 3 4 4 5 9 9 9 8 8 7
9 7 7 13 13 12 11 11 11 10 9 9 8 7 7 7 7 6 6 6 6 7 6 7 7 8 8 7 7 7 6 6 5 5 4 4 7 9 9 9 9 9 8
9 7 5 6 8 11 11 11 11 10 9 8 7 7 6 6 6 6 6 6 6 6 6 7 8 8 8 8 8 8 7 6 3 3 5 4 7 9 10 10 10 9 9
7 6 5 5 5 5 6 10 11 10 9 8 7 6 6 5 5 5 5 5 6 6 6 7 7 8 8 8 9 8 7 6 3 3 3 4 8 9 10 10 10 10 9
7 5 5 5 4 4 5 7 8 9 8 7 6 7 5 2 2 3 4 5 6 6 6 7 7 7 8 8 8 8 6 2 3 2 3 7 10 10 9 9 10 10 10
8 7 5 6 5 5 5 4 3 3 3 3 2 2 2 1 2 3 4 6 6 6 6 7 7 7 6 3 5 7 2 3 3 3 4 9 10 10 9 9 10 11 11
9 8 7 6 6 5 3 4 2 2 2 2 2 2 1 1 1 2 1 2 3 4 3 4 4 2 2 3 3 2 2 2 2 3 4 9 10 11 10 10 10 10 11
9 8 7 7 6 5 4 3 3 2 2 2 3 3 2 1 1 1 1 1 1 1 1 1 1 2 2 3 3 2 3 2 2 2 4 9 9 10 11 10 11 11 10
8 8 8 7 6 5 4 3 4 3 3 3 3 2 3 2 2 2 1 1 2 1 1 1 2 2 2 2 2 2 3 3 3 3 3 8 9 9 10 11 11 11 11
7 8 7 6 6 5 4 3 3 3 3 3 2 3 3 2 2 1 1 1 1 2 2 2 2 2 2 1 2 2 2 3 4 3 3 5 9 9 10 10 10 11 11
8 7 7 7 6 5 5 4 3 2 3 2 2 2 2 2 2 1 1 1 1 1 1 1 1 1 1 1 2 2 2 3 4 4 4 3 4 8 9 9 9 10 11
8 7 7 7 6 5 4 3 2 2 2 2 2 1 2 2 2 1 1 1 1 0 0 0 0 0 1 1 1 2 1 1 3 3 3 3 3 3 6 9 9 9 10
9 8 7 6 6 5 4 3 2 2 1 1 2 1 2 1 1 1 1 1 1 0 0 1 0 0 1 1 1 1 1 1 2 3 3 3 3 3 3 5 8 8 9
8 7 6 6 5 4 3 3 2 2 1 1 1 1 2 1 1 1 1 1 0 0 0 0 0 0 1 1 1 1 2 2 1 2 2 2 2 3 2 3 3 4 6
8 7 6 6 5 4 3 2 2 1 0 0 1 1 2 2 2 2 1 0 0 0 1 1 1 0 1 0 1 2 2 2 1 1 1 2 2 2 2 2 2 1 2
8 8 7 7 6 5 3 3 2 2 1 1 1 1 2 2 2 2 2 1 1 0 0 1 1 0 1 0 1 1 2 3 2 1 1 2 2 2 2 3 3 3 2
9 9 8 7 6 5 4 3 2 1 1 1 0 1 1 1 1 1 2 1 1 1 1 1 1 2 1 1 1 3 2 2 3 2 2 1 1 1 2 2 3 3 3
9 8 7 7 6 6 5 5 4 3 2 2 1 1 1 1 1 1 1 1 1 1 1 1 1 1 2 1 1 1 2 3 2 2 2 2 2 2 3 2 2 3 3
8 7 6 6 5 5 5 5 4 3 2 1 1 0 1 1 1 1 1 1 1 1 1 1 1 1 1 2 1 1 1 1 1 2 2 3 2 2 3 3 2 3 3
6 6 5 6 5 5 5 5 5 4 3 2 1 1 1 1 1 1 1 1 1 1 1 1 1 1 1 1 1 1 1 1 2 2 2 2 2 3 2 2 2 3 3
Wind_Direction
151 153 138 132 129 127 133 133 127 124 122 121 120 120 120 122 124 125 128 129 131 134 138 142 147 147 145 145 145 146 146 149 153 154 155 157 156 154 150 149 148 142 143
150 146 135 133 129 121 124 130 130 128 128 127 125 125 125 125 126 129 131 133 135 137 141 143 146 149 151 150 150 150 153 155 160 167 172 170 166 162 159 157 156 150 149
138 139 136 134 130 127 126 129 131 131 129 128 126 127 127 128 131 134 134 138 142 144 147 148 148 149 153 159 163 165 169 170 175 180 184 176 178 176 167 164 165 163 160
137 138 135 135 133 131 132 133 133 132 131 130 130 130 131 131 131 133 140 146 150 153 155 155 156 157 158 164 171 176 183 189 192 193 188 186 190 183 180 176 173 171 169
133 139 142 138 137 136 136 135 134 136 135 135 136 136 139 140 141 142 145 151 156 159 162 166 166 167 168 171 176 184 194 204 206 206 190 192 196 196 194 190 183 178 179
136 143 147 142 140 139 138 137 137 138 140 141 142 143 146 147 150 154 156 160 166 171 174 176 176 178 181 182 187 194 205 213 210 196 192 193 196 202 197 195 191 187 185
140 144 145 142 143 143 143 143 141 141 144 146 148 150 153 157 161 161 166 174 178 183 186 187 189 192 198 199 205 212 218 219 199 198 197 201 202 205 203 197 191 189 187
144 145 145 147 146 145 146 149 148 149 149 149 153 158 160 163 170 173 179 186 189 192 196 200 203 207 213 214 217 224 230 224 207 207 206 209 207 201 199 195 192 194 192
140 141 141 146 150 153 152 151 153 154 156 155 160 164 167 173 177 182 190 199 201 201 204 210 215 217 222 225 229 232 233 226 208 205 213 209 206 202 199 198 195 198 198
140 143 145 146 146 150 155 156 158 160 162 164 166 167 165 169 177 184 190 204 208 210 214 220 226 228 229 233 237 238 236 233 221 214 209 205 207 203 202 201 198 200 202
147 157 157 156 152 154 158 163 162 163 168 171 172 174 172 181 197 203 210 211 215 221 225 231 238 243 239 240 240 238 235 217 196 206 208 207 201 200 201 202 201 202 205
163 171 171 166 165 166 170 156 162 168 174 175 182 187 177 185 216 220 224 224 225 229 238 243 247 251 249 241 238 235 222 204 196 207 211 208 200 201 203 205 205 206 207
170 169 172 173 172 173 169 157 169 176 177 188 197 202 195 196 226 234 232 239 240 241 247 249 256 254 248 237 224 214 211 208 201 213 209 207 206 207 207 206 205 206 210
164 171 169 169 170 175 164 165 170 179 186 195 204 197 176 179 206 208 214 233 239 244 240 248 252 251 251 248 230 211 197 201 204 208 216 213 213 211 209 208 205 204 205
157 164 167 168 167 167 160 169 169 182 187 191 193 194 174 174 199 200 215 223 239 232 218 224 243 244 242 240 238 209 199 205 207 202 211 209 211 214 213 210 208 208 208
154 159 157 157 160 155 155 163 166 177 179 173 181 193 178 174 182 188 202 218 234 224 211 204 223 236 243 232 240 218 201 197 199 201 203 207 208 211 214 212 211 212 213
155 152 150 150 148 148 148 156 157 162 158 166 181 192 177 179 177 177 199 224 241 239 222 203 238 258 257 251 250 241 213 196 194 200 202 202 207 213 215 213 212 213 214
151 150 152 149 144 143 140 140 139 147 148 163 171 172 184 196 183 176 199 235 248 194 196 213 236 299 287 269 252 254 241 203 199 196 190 199 206 218 223 220 218 220 220
155 152 151 140 149 150 142 133 128 123 136 159 152 165 191 206 189 167 187 242 233 132 218 244 199 192 275 295 262 246 243 229 212 202 191 198 210 218 220 225 227 228 225
150 150 149 144 155 150 133 116 107 100 117 138 158 172 183 209 189 162 169 267 309 62 345 326 239 249 228 265 285 287 255 241 208 198 204 200 202 208 211 219 228 238 231
150 152 152 149 156 148 135 137 139 146 169 156 185 181 199 213 181 146 141 127 58 185 226 228 199 261 285 15 30 342 331 301 258 217 195 183 197 208 194 199 201 203 240
161 160 157 160 164 162 160 156 152 155 176 179 192 187 201 191 175 159 157 178 185 154 306 270 192 155 274 154 129 63 346 338 332 288 221 200 202 196 198 203 202 193 211
165 167 167 168 165 163 152 126 113 86 49 40 285 240 229 184 173 170 166 174 186 180 217 248 203 176 236 266 162 141 156 242 303 312 285 239 211 213 222 205 200 200 203
176 171 165 166 165 163 153 147 152 163 183 213 213 237 271 222 194 188 178 174 186 195 214 250 221 200 184 240 269 211 193 182 182 289 314 286 237 227 226 218 209 210 209
171 170 168 162 162 161 162 162 163 172 189 184 142 229 287 289 245 220 198 179 186 203 213 249 262 217 184 203 229 242 243 230 182 184 269 293 294 255 234 222 212 213 212
157 158 160 158 164 165 166 168 168 169 167 156 172 202 246 268 279 277 208 195 200 209 216 243 253 231 232 218 222 207 199 206 212 192 227 261 272 271 251 230 219 217 216